User: anonymous   Login
Location: Columbia
(38.9520°N, 92.3340°W)
Time: 08:30:53
(UTC-06:00)
Language:

Cosmos 2100 Rocket - Orbit

View from above orbital plane
View from above orbital plane
View from above satellite
View from above satellite

Ground track
Ground track

The orbit data is extracted from the following two-line orbital elements,

1 20805U 90083B   14326.76792222  .00000091  00000-0  78204-4 0  8644
2 20805 082.9386 036.8615 0031925 131.0898 003.4132 13.75737611214508
Epoch (UTC): 22 November 2014 18:25:48
Eccentricity: 0.0031925
inclination: 82.9386°
perigee height: 955 km
apogee height: 1002 km
right ascension of ascending node: 36.8615°
argument of perigee: 131.0898°
revolutions per day: 13.75737611
mean anomaly at epoch: 3.4132°
orbit number at epoch: 21450

The dashed part of the orbit path shows where the satellite is in the earth's shadow,  

DLR